Location: Newark
(40.9833°N, 0.0333°W)
Time: 02:01:43
(UTC+00:00)

Altair - Pass Details

Date: 01 November 2020
Orbit: 1502 x 1682 km, 47.2° (Epoch: 02 December)

Event Time Altitude Azimuth Distance (km) Brightness Sun altitude
Rises 02:07:36 0° 197° (SSW) 4,620 - -49.1°
Reaches altitude 10° 02:11:05 10° 187° (S) 3,642 - -48.5°
Maximum altitude 02:18:37 30° 130° (SE) 2,457 - -47.3°
Exits shadow 02:19:56 29° 116° (ESE) 2,509 8.7 -47.1°
Drops below altitude 10° 02:26:16 10° 75° (ENE) 3,713 10.1 -46.0°
Sets 02:29:50 0° 65° (ENE) 4,723 10.8 -45.4°
